Starlink 30806

operational
NORAD ID: 58180 Int'l Des: 2023-167 Owner: SPXS Country: US Constellation: starlink
LEOCIRCULAR

About Starlink 30806

Description loading...

Live Position

Loading 3D Globe...

Upcoming Passes

Altitude History

Altitude vs Time

uPlot chart will show altitude changes over time

Two-Line Element Set

1 58180U 23167F 26034.22826548 -.00001145 00000-0 -69690-4 0 9990
2 58180 43.0042 332.9945 0001265 275.9687 84.1011 15.02543900125776
Epoch: Feb 3, 2026 • Age: 17 hours

Current Status

Altitude 562.5 km
Velocity 7.58 km/s
Sub-Earth Point -17.62°S, 59.67°E
Launch Date Oct 30, 2023
Age 2.2 years
Type internet

Technical Details

Classification Payload
Mass 730.00 kg
Dry Mass 700.00 kg
Total Mass 730.00 kg
Length 0.30 m
Diameter 4.10 m
Span 29.00 m
Shape Box + pan
Manufacturer SPXS
Bus Type Starlink V2M
Phase Status In Orbit
Owner/State SPXS/US

Large Constellations

Loading constellations...